FW7184 Weather Reports


Display with metric or nautical units.
time (UTC)temp
F
wind
direction
speed
MPH
gust
MPH
rain 1hr
in
rain 24hr
in
rain mn
in
humidity
%
barometer
mb
20260906060924 61 196 0.0 0.0 0.00 0.00 0.00 99 1014.0
20260906060421 61 195 0.0 0.0 0.00 0.00 0.00 99 1013.7
20260906055917 61 196 0.0 0.0 0.00 0.00 0.00 99 1013.8
20260906055413 61 193 0.0 0.0 0.00 0.00 0.00 99 1013.6
20260906054908 61 196 0.0 0.0 0.00 0.00 0.00 99 1013.6
20260906054403 61 196 0.0 0.0 0.00 0.00 0.00 99 1013.5
20260906053859 61 197 0.0 0.0 0.00 0.00 0.00 99 1013.2
20260906053354 62 198 0.0 0.0 0.00 0.00 0.00 99 1013.6
20260906052850 62 199 0.0 0.0 0.00 0.00 0.00 99 1013.7
20260906052346 62 195 0.0 0.0 0.00 0.00 0.00 98 1013.6
20260906051843 62 194 0.0 0.0 0.00 0.00 0.00 98 1013.7
20260906051342 62 197 0.0 0.0 0.00 0.00 0.00 98 1013.5
20260906050839 62 197 0.0 1.0 0.00 0.00 0.00 98 1013.6
20260906050333 62 190 0.0 0.0 0.00 0.00 0.00 98 1013.5
20260906045832 62 196 0.0 0.0 0.00 0.00 0.00 98 1013.6
20260906045326 62 196 0.0 0.0 0.00 0.00 0.00 98 1013.6
20260906044823 62 196 0.0 0.0 0.00 0.00 0.00 98 1013.7
20260906044323 62 194 0.0 0.0 0.00 0.00 0.00 98 1013.6
20260906043819 62 190 0.0 0.0 0.00 0.00 0.00 97 1013.8
20260906043315 62 196 0.0 0.0 0.00 0.00 0.00 97 1013.5
20260906042814 63 199 0.0 0.0 0.00 0.00 0.00 97 1013.6
20260906042314 63 185 0.0 0.0 0.00 0.00 0.00 97 1013.6
20260906041809 63 194 0.0 0.0 0.00 0.00 0.00 97 1013.5
20260906041304 63 198 0.0 0.0 0.00 0.00 0.00 97 1013.6
20260906040759 63 194 0.0 0.0 0.00 0.00 0.00 97 1013.7
20260906040255 63 191 0.0 0.0 0.00 0.00 0.00 97 1013.6
20260906035750 63 187 0.0 0.0 0.00 0.00 0.00 97 1013.5
20260906035246 63 191 0.0 0.0 0.00 0.00 0.00 97 1013.3
20260906034746 63 184 0.0 0.0 0.00 0.00 0.00 97 1013.4
20260906034240 63 196 0.0 0.0 0.00 0.00 0.00 97 1013.5
20260906033736 63 190 0.0 0.0 0.00 0.00 0.00 97 1013.3
20260906033236 63 195 0.0 0.0 0.00 0.00 0.00 97 1013.4
20260906032733 63 194 0.0 0.0 0.00 0.00 0.00 96 1013.4
20260906032232 63 193 0.0 0.0 0.00 0.00 0.00 96 1013.3
20260906031728 63 182 0.0 0.0 0.00 0.00 0.00 96 1013.3
20260906031223 63 196 0.0 0.0 0.00 0.00 0.00 96 1013.0
20260906030723 63 190 0.0 0.0 0.00 0.00 0.00 95 1013.1
20260906030218 64 188 0.0 0.0 0.00 0.00 0.00 95 1012.9
20260906025717 64 189 0.0 0.0 0.00 0.00 0.00 94 1013.1
20260906025212 64 188 0.0 0.0 0.00 0.00 0.00 94 1013.0
20260906024711 64 194 0.0 0.0 0.00 0.00 0.00 93 1013.1
20260906024210 64 196 0.0 0.0 0.00 0.00 0.00 93 1013.2
20260906023706 64 194 0.0 0.0 0.00 0.00 0.00 92 1013.1
20260906023201 64 196 0.0 0.0 0.00 0.00 0.00 92 1013.1
20260906022656 65 191 0.0 0.0 0.00 0.00 0.00 91 1013.0
20260906022152 65 197 0.0 0.0 0.00 0.00 0.00 90 1013.3
20260906021647 66 196 0.0 0.0 0.00 0.00 0.00 89 1013.0
20260906021146 66 187 0.0 0.0 0.00 0.00 0.00 88 1013.3
20260906020641 66 196 0.0 0.0 0.00 0.00 0.00 87 1013.1
20260906020136 67 195 0.0 0.0 0.00 0.00 0.00 86 1013.1
20260906015630 67 197 0.0 0.0 0.00 0.00 0.00 85 1012.9
20260906015128 67 198 0.0 0.0 0.00 0.00 0.00 84 1013.0
20260906014623 68 197 0.0 0.0 0.00 0.00 0.00 84 1012.8
20260906014120 68 196 0.0 0.0 0.00 0.00 0.00 84 1013.1
20260906013614 68 194 0.0 0.0 0.00 0.00 0.00 82 1012.8
20260906013110 68 189 0.0 0.0 0.00 0.00 0.00 82 1012.7
20260906012604 68 188 0.0 1.0 0.00 0.00 0.00 82 1012.9
20260906012059 68 293 0.0 0.0 0.00 0.00 0.00 82 1012.6
20260906011555 68 251 1.0 1.0 0.00 0.00 0.00 82 1012.8
20260906011055 68 181 0.0 0.0 0.00 0.00 0.00 83 1012.7
20260906010550 68 188 0.0 0.0 0.00 0.00 0.00 83 1012.7
20260906010046 68 186 0.0 0.0 0.00 0.00 0.00 83 1012.7
20260906005540 68 197 0.0 0.0 0.00 0.00 0.00 82 1012.5
20260906005039 68 188 0.0 0.0 0.00 0.00 0.00 82 1012.4
20260906004538 68 189 0.0 0.0 0.00 0.00 0.00 82 1012.5
20260906004033 68 189 0.0 0.0 0.00 0.00 0.00 81 1012.5
20260906003528 69 180 0.0 0.0 0.00 0.00 0.00 80 1012.5
20260906003024 69 177 0.0 0.0 0.00 0.00 0.00 81 1012.5
20260906002519 68 194 0.0 1.0 0.00 0.00 0.00 81 1012.5
20260906002014 68 175 0.0 1.0 0.00 0.00 0.00 82 1012.5
20260906001509 68 177 1.0 1.0 0.00 0.00 0.00 81 1012.4
20260906001003 68 190 0.0 0.0 0.00 0.00 0.00 82 1012.1
20260906000459 69 176 0.0 0.0 0.00 0.00 0.00 81 1012.1
20260905235954 69 181 0.0 0.0 0.00 0.00 0.00 81 1012.1
20260905235454 69 187 0.0 0.0 0.00 0.00 0.00 80 1012.2
20260905234949 69 173 0.0 0.0 0.00 0.00 0.00 80 1011.8
20260905234445 69 186 1.0 1.0 0.00 0.00 0.00 79 1011.8
20260905233944 70 166 0.0 0.0 0.00 0.00 0.00 78 1012.2
20260905233434 70 186 0.0 0.0 0.00 0.00 0.00 77 1011.6
20260905232933 70 143 0.0 1.0 0.00 0.00 0.00 77 1012.0
20260905232429 71 242 1.0 1.0 0.00 0.00 0.00 76 1011.9
20260905231924 71 189 0.0 0.0 0.00 0.00 0.00 76 1012.0
20260905231420 71 168 0.0 1.0 0.00 0.00 0.00 75 1011.9
20260905230917 72 222 0.0 1.0 0.00 0.00 0.00 74 1011.8
20260905230414 72 186 0.0 0.0 0.00 0.00 0.00 73 1011.7
20260905225913 72 339 3.0 3.0 0.00 0.00 0.00 73 1011.9
20260905225409 73 30 1.0 1.0 0.00 0.00 0.00 72 1011.6
20260905224903 73 210 0.0 1.0 0.00 0.00 0.00 72 1011.6
20260905224400 73 255 0.0 0.0 0.00 0.00 0.00 71 1011.2
20260905223854 74 206 1.0 1.0 0.00 0.00 0.00 70 1011.5
20260905223352 74 325 1.0 2.0 0.00 0.00 0.00 69 1011.5
20260905222851 74 165 2.0 2.0 0.00 0.00 0.00 68 1011.3
20260905222350 74 189 0.0 0.0 0.00 0.00 0.00 68 1011.3
20260905221847 75 29 2.0 2.0 0.00 0.00 0.00 67 1011.2
20260905221343 75 165 1.0 2.0 0.00 0.00 0.00 65 1011.5
20260905220839 75 8 3.0 6.0 0.00 0.00 0.00 66 1011.2
20260905220335 76 24 2.0 2.0 0.00 0.00 0.00 66 1011.2
20260905215834 76 18 2.0 3.0 0.00 0.00 0.00 66 1011.3
20260905215330 76 28 2.0 2.0 0.00 0.00 0.00 65 1011.1
20260905214827 76 163 0.0 1.0 0.00 0.00 0.00 65 1011.1
20260905214321 76 166 0.0 1.0 0.00 0.00 0.00 64 1010.9
20260905213816 76 305 1.0 1.0 0.00 0.00 0.00 64 1011.0
20260905213312 77 178 0.0 0.0 0.00 0.00 0.00 67 1011.1
20260905212807 77 189 0.0 0.0 0.00 0.00 0.00 64 1011.2
20260905212307 77 267 1.0 1.0 0.00 0.00 0.00 64 1011.2
20260905211801 77 123 0.0 1.0 0.00 0.00 0.00 63 1011.0
20260905211256 77 357 2.0 2.0 0.00 0.00 0.00 64 1010.8
20260905210753 77 199 1.0 1.0 0.00 0.00 0.00 62 1010.9
20260905210252 77 187 2.0 2.0 0.00 0.00 0.00 62 1010.8
20260905205751 77 263 0.0 0.0 0.00 0.00 0.00 62 1011.0
20260905205246 77 220 0.0 1.0 0.00 0.00 0.00 63 1010.9
20260905204745 77 35 2.0 2.0 0.00 0.00 0.00 64 1010.7
20260905204242 77 181 0.0 0.0 0.00 0.00 0.00 64 1010.8
20260905203741 77 316 2.0 3.0 0.00 0.00 0.00 62 1010.6
20260905203236 77 235 2.0 2.0 0.00 0.00 0.00 62 1010.6
20260905202732 77 178 0.0 0.0 0.00 0.00 0.00 62 1010.8
20260905202227 77 211 0.0 1.0 0.00 0.00 0.00 61 1010.5
20260905201722 77 30 1.0 1.0 0.00 0.00 0.00 62 1010.6
20260905201223 77 116 0.0 0.0 0.00 0.00 0.00 61 1010.6
20260905200717 78 53 1.0 1.0 0.00 0.00 0.00 61 1010.8
20260905200208 78 336 0.0 0.0 0.00 0.00 0.00 60 1010.8
20260905195706 78 347 1.0 2.0 0.00 0.00 0.00 59 1010.8
20260905195201 78 73 1.0 1.0 0.00 0.00 0.00 58 1010.9
20260905194656 79 337 1.0 2.0 0.00 0.00 0.00 58 1010.6
20260905194155 79 177 1.0 1.0 0.00 0.00 0.00 57 1010.6
20260905193650 79 193 0.0 0.0 0.00 0.00 0.00 58 1010.5
20260905193145 78 210 1.0 2.0 0.00 0.00 0.00 59 1010.7
20260905192640 79 189 0.0 1.0 0.00 0.00 0.00 58 1010.8
20260905192137 78 206 0.0 0.0 0.00 0.00 0.00 57 1010.8
20260905191636 79 67 1.0 1.0 0.00 0.00 0.00 57 1010.7
20260905191134 79 202 1.0 1.0 0.00 0.00 0.00 56 1010.7
20260905190633 78 344 0.0 1.0 0.00 0.00 0.00 59 1010.8
20260905190132 78 170 1.0 1.0 0.00 0.00 0.00 60 1010.8
20260905185631 78 224 1.0 2.0 0.00 0.00 0.00 59 1011.0
20260905185126 77 246 0.0 1.0 0.00 0.00 0.00 60 1010.9
20260905184620 78 72 3.0 3.0 0.00 0.00 0.00 58 1010.9
20260905184119 78 300 2.0 2.0 0.00 0.00 0.00 61 1010.9
20260905183618 77 202 0.0 1.0 0.00 0.00 0.00 62 1011.1
20260905183114 77 6 2.0 2.0 0.00 0.00 0.00 63 1010.9
20260905182614 78 325 1.0 1.0 0.00 0.00 0.00 60 1011.1
20260905182113 78 296 1.0 1.0 0.00 0.00 0.00 61 1011.2
20260905181608 77 28 1.0 1.0 0.00 0.00 0.00 61 1011.2
20260905181107 78 144 0.0 0.0 0.00 0.00 0.00 60 1011.1
20260905180602 77 178 0.0 1.0 0.00 0.00 0.00 63 1011.3
20260905180058 78 100 1.0 1.0 0.00 0.00 0.00 62 1011.1
20260905175556 79 261 0.0 1.0 0.00 0.00 0.00 61 1011.1
20260905175052 78 265 1.0 1.0 0.00 0.00 0.00 62 1011.2
20260905174548 77 98 1.0 1.0 0.00 0.00 0.00 65 1011.7
20260905174043 77 122 0.0 0.0 0.00 0.00 0.00 62 1011.3
20260905173540 78 164 0.0 1.0 0.00 0.00 0.00 63 1011.6
20260905173035 78 63 2.0 2.0 0.00 0.00 0.00 62 1011.6
20260905172533 77 1 3.0 3.0 0.00 0.00 0.00 62 1011.5
20260905172029 77 23 1.0 2.0 0.00 0.00 0.00 64 1011.7
20260905171525 76 191 1.0 2.0 0.00 0.00 0.00 63 1011.6
20260905171021 77 142 1.0 1.0 0.00 0.00 0.00 64 1011.8
20260905170518 78 18 2.0 3.0 0.00 0.00 0.00 62 1011.2
20260905170012 77 209 1.0 2.0 0.00 0.00 0.00 62 1011.6
20260905165507 77 22 1.0 2.0 0.00 0.00 0.00 63 1011.5
20260905165002 77 209 1.0 1.0 0.00 0.00 0.00 66 1011.6
20260905164502 76 209 1.0 1.0 0.00 0.00 0.00 67 1011.5
20260905163956 76 210 0.0 1.0 0.00 0.00 0.00 68 1011.6
20260905163453 75 28 2.0 3.0 0.00 0.00 0.00 69 1011.6
20260905162949 75 243 1.0 2.0 0.00 0.00 0.00 67 1011.7
20260905162444 75 232 1.0 1.0 0.00 0.00 0.00 69 1011.7
20260905161939 75 133 0.0 0.0 0.00 0.00 0.00 68 1011.7
20260905161438 75 86 0.0 1.0 0.00 0.00 0.00 67 1011.3
20260905160936 75 208 1.0 1.0 0.00 0.00 0.00 68 1011.6
20260905160430 75 24 2.0 2.0 0.00 0.00 0.00 68 1011.2
20260905155929 75 182 0.0 0.0 0.00 0.00 0.00 69 1011.6
20260905155424 75 338 4.0 5.0 0.00 0.00 0.00 68 1011.6
20260905154923 74 40 0.0 1.0 0.00 0.00 0.00 70 1011.7
20260905154419 74 110 0.0 1.0 0.00 0.00 0.00 70 1011.8
20260905153914 74 100 1.0 2.0 0.00 0.00 0.00 68 1011.8
20260905153410 73 65 1.0 1.0 0.00 0.00 0.00 69 1011.6
20260905152910 73 166 1.0 1.0 0.00 0.00 0.00 69 1011.6
20260905152409 74 349 1.0 2.0 0.00 0.00 0.00 70 1011.6
20260905151904 74 80 1.0 2.0 0.00 0.00 0.00 69 1011.6
20260905151400 74 291 1.0 1.0 0.00 0.00 0.00 70 1011.6
20260905150855 74 183 1.0 1.0 0.00 0.00 0.00 71 1011.9
20260905150354 73 135 0.0 1.0 0.00 0.00 0.00 71 1011.7
20260905145852 74 334 1.0 1.0 0.00 0.00 0.00 72 1011.8
20260905145346 75 221 0.0 0.0 0.00 0.00 0.00 71 1011.7
20260905144845 75 261 1.0 1.0 0.00 0.00 0.00 71 1011.7
20260905144341 75 144 0.0 1.0 0.00 0.00 0.00 70 1011.7
20260905143839 74 192 2.0 3.0 0.00 0.00 0.00 71 1011.6
20260905143334 73 229 1.0 1.0 0.00 0.00 0.00 73 1011.7
20260905142834 73 111 0.0 1.0 0.00 0.00 0.00 74 1011.8
20260905142332 73 200 0.0 1.0 0.00 0.00 0.00 73 1011.6
20260905141829 72 192 2.0 3.0 0.00 0.00 0.00 76 1011.7
20260905141324 71 116 1.0 2.0 0.00 0.00 0.00 78 1011.6
20260905140820 71 26 3.0 5.0 0.00 0.00 0.00 78 1011.6
20260905140319 71 110 0.0 1.0 0.00 0.00 0.00 79 1011.6
20260905135818 70 253 2.0 3.0 0.00 0.00 0.00 79 1011.6
20260905135315 70 189 2.0 3.0 0.00 0.00 0.00 80 1011.5
20260905134810 70 196 0.0 1.0 0.00 0.00 0.00 81 1011.7
20260905134309 70 17 2.0 3.0 0.00 0.00 0.00 81 1011.7
20260905133809 70 5 4.0 5.0 0.00 0.00 0.00 81 1011.7
20260905133304 69 199 0.0 0.0 0.00 0.00 0.00 82 1011.5
20260905132803 69 2 3.0 5.0 0.00 0.00 0.00 84 1011.5
20260905132259 69 200 1.0 1.0 0.00 0.00 0.00 84 1011.9
20260905131753 69 345 3.0 3.0 0.00 0.00 0.00 83 1011.7
20260905131249 68 205 0.0 0.0 0.00 0.00 0.00 84 1011.5
20260905130744 68 4 1.0 2.0 0.00 0.00 0.00 85 1011.8
20260905130243 68 232 1.0 1.0 0.00 0.00 0.00 86 1011.8
20260905125738 67 355 1.0 2.0 0.00 0.00 0.00 86 1011.6
20260905125233 67 67 1.0 1.0 0.00 0.00 0.00 88 1011.8
20260905124730 67 11 1.0 2.0 0.00 0.00 0.00 89 1011.9
20260905124225 66 239 0.0 1.0 0.00 0.00 0.00 89 1012.0
20260905123720 66 172 0.0 0.0 0.00 0.00 0.00 90 1011.9
20260905123217 65 206 1.0 1.0 0.00 0.00 0.00 92 1012.1
20260905122716 65 223 0.0 0.0 0.00 0.00 0.00 94 1012.1
20260905122211 64 198 0.0 0.0 0.00 0.00 0.00 95 1012.1
20260905121706 63 197 0.0 0.0 0.00 0.00 0.00 98 1011.7
20260905121202 62 203 0.0 0.0 0.00 0.00 0.00 99 1012.0
20260905120701 62 204 0.0 0.0 0.00 0.00 0.00 99 1012.0
20260905120156 62 212 0.0 0.0 0.00 0.00 0.00 99 1012.1
20260905115656 62 207 0.0 0.0 0.00 0.00 0.00 99 1012.0
20260905115151 62 205 0.0 0.0 0.00 0.00 0.00 99 1011.8
20260905114650 62 204 0.0 0.0 0.00 0.00 0.00 99 1011.7
20260905114149 61 203 0.0 0.0 0.00 0.00 0.00 99 1011.8
20260905113643 61 204 0.0 0.0 0.00 0.00 0.00 99 1011.7
20260905113139 61 204 0.0 0.0 0.00 0.00 0.00 99 1011.6
20260905112639 60 204 0.0 0.0 0.00 0.00 0.00 99 1011.6
20260905112135 60 204 0.0 0.0 0.00 0.00 0.00 99 1011.5
20260905111635 60 204 0.0 0.0 0.00 0.00 0.00 99 1011.1
20260905111134 60 201 0.0 0.0 0.00 0.00 0.00 99 1011.1
20260905110633 60 198 0.0 0.0 0.00 0.00 0.00 99 1011.0
20260905110128 60 209 0.0 0.0 0.00 0.00 0.00 99 1011.1
20260905105624 59 207 0.0 0.0 0.00 0.00 0.00 99 1010.9
20260905105122 59 204 0.0 0.0 0.00 0.00 0.00 99 1011.0
20260905104618 59 204 0.0 0.0 0.00 0.00 0.00 99 1010.9
20260905104113 59 204 0.0 0.0 0.00 0.00 0.00 99 1011.2
20260905103608 59 206 0.0 0.0 0.00 0.00 0.00 99 1010.9
20260905103104 59 205 0.0 0.0 0.00 0.00 0.00 99 1011.2
20260905102554 59 205 0.0 0.0 0.00 0.00 0.00 99 1011.2
20260905102051 60 205 0.0 0.0 0.00 0.00 0.00 99 1011.1
20260905101549 60 205 0.0 0.0 0.00 0.00 0.00 99 1010.9
20260905101047 60 206 0.0 0.0 0.00 0.00 0.00 99 1011.0
20260905100544 60 207 0.0 0.0 0.00 0.00 0.00 99 1011.0
20260905100043 60 205 0.0 0.0 0.00 0.00 0.00 99 1010.9
20260905095538 60 208 0.0 0.0 0.00 0.00 0.00 99 1010.7
20260905095033 60 201 0.0 0.0 0.00 0.00 0.00 99 1010.9
20260905094528 60 201 0.0 0.0 0.00 0.00 0.00 99 1011.0
20260905094027 60 205 0.0 0.0 0.00 0.00 0.00 99 1010.6
20260905093522 60 202 0.0 0.0 0.00 0.00 0.00 99 1010.7
20260905093019 60 204 0.0 0.0 0.00 0.00 0.00 99 1010.8
20260905092519 61 204 0.0 0.0 0.00 0.00 0.00 99 1010.6
20260905092014 61 202 0.0 0.0 0.00 0.00 0.00 99 1010.7
20260905091513 61 204 0.0 0.0 0.00 0.00 0.00 99 1010.7
20260905091008 61 202 0.0 0.0 0.00 0.00 0.00 99 1010.6
20260905090503 61 201 0.0 0.0 0.00 0.00 0.00 99 1010.6
20260905090003 61 202 0.0 0.0 0.00 0.00 0.00 99 1010.7
20260905085501 62 202 0.0 0.0 0.00 0.00 0.00 99 1010.7
20260905084957 62 204 0.0 0.0 0.00 0.00 0.00 99 1010.6
20260905084457 62 205 0.0 0.0 0.00 0.00 0.00 99 1010.5
20260905083951 62 202 0.0 0.0 0.00 0.00 0.00 99 1010.8
20260905083447 62 202 0.0 0.0 0.00 0.00 0.00 99 1010.5
20260905082943 62 204 0.0 0.0 0.00 0.00 0.00 99 1010.7
20260905082439 63 206 0.0 0.0 0.00 0.00 0.00 98 1010.6
20260905081933 63 202 0.0 0.0 0.00 0.00 0.00 98 1010.7
20260905081428 63 199 0.0 0.0 0.00 0.00 0.00 98 1010.9
20260905080927 63 200 0.0 0.0 0.00 0.00 0.00 98 1010.7
20260905080422 64 202 0.0 0.0 0.00 0.00 0.00 97 1010.7
20260905075921 64 203 0.0 0.0 0.00 0.00 0.00 97 1010.5
20260905075415 64 201 0.0 0.0 0.00 0.00 0.00 97 1010.8
20260905074914 64 203 0.0 0.0 0.00 0.00 0.00 97 1010.7
20260905074410 64 201 0.0 0.0 0.00 0.00 0.00 97 1010.5
20260905073906 64 200 0.0 0.0 0.00 0.00 0.00 97 1010.7
20260905073401 64 202 0.0 0.0 0.00 0.00 0.00 97 1010.5
20260905072856 65 199 0.0 0.0 0.00 0.00 0.00 97 1010.4
20260905072350 65 202 0.0 0.0 0.00 0.00 0.00 97 1010.3
20260905071846 65 203 0.0 0.0 0.00 0.00 0.00 96 1010.6
20260905071338 65 201 0.0 0.0 0.00 0.00 0.00 96 1010.7
20260905070837 66 201 0.0 0.0 0.00 0.00 0.00 95 1010.6
20260905070334 66 200 0.0 0.0 0.00 0.00 0.00 95 1010.7
20260905065832 66 200 0.0 0.0 0.00 0.00 0.00 94 1010.8
20260905065331 66 203 0.0 0.0 0.00 0.00 0.00 93 1010.6
20260905064826 66 202 0.0 0.0 0.00 0.00 0.00 93 1010.8
20260905064322 66 202 0.0 0.0 0.00 0.00 0.00 93 1011.0
20260905063820 66 202 0.0 0.0 0.00 0.00 0.00 93 1010.8
20260905063317 66 200 0.0 0.0 0.00 0.00 0.00 93 1010.6
20260905062813 66 202 0.0 0.0 0.00 0.00 0.00 93 1010.8
20260905062313 67 201 0.0 0.0 0.00 0.00 0.00 93 1010.8
20260905061808 67 200 0.0 0.0 0.00 0.00 0.00 94 1010.8
20260905061302 67 200 0.0 0.0 0.00 0.00 0.00 94 1010.8